sat.trackr.live / text

‹ back to catalog

STARLINK-30611

NORAD 58108 · 2023-161M

PAYLOAD ACTIVE UNKNOWN

§ Identity

Operator
Country
US
Launch date
2023-10-21
Launch site
AFWTR
Launch vehicle
Mass (kg)
RCS (m²)

Purposes: comms

External: N2YO · Heavens-Above · Gunter

§ Orbital elements

Epoch: 2026-05-25T00:01:59.010816Z

Period
93.85 min
Inclination
53.1594°
Eccentricity
0.0001110
Mean motion
15.34397138 rev/d
Perigee alt
462.0 km
Apogee alt
463.5 km
Semi-major
6,840.8 km
B*
7.2721e-5
RAAN
157.4908°
Arg perigee
89.6202°
Mean anomaly
270.4928°
Rev number
14,629

§ Raw data

STARLINK-306111 58108U 23161M   26145.00137744  .00002081  00000+0  72721-4 0  99922 58108  53.1594 157.4908 0001110  89.6202 270.4928 15.34397138146293

JSON: /api/v1/satellites/58108 · /tle

For live sub-satellite position, see the globe view (requires WebGL).

§ Visibility from observer

Set your observer location to see the next 7 days of passes ≥ 10°. The values pass through the URL so the page stays shareable.

No JS? Fill the form by hand. The geolocation button needs JavaScript.